Regional Weather Roundup
Issued by NWS Portland, ME

Current Version | Previous Version | Text Only | Print | Product List | Glossary Off
Versions: 1 2 3 4 5 6 7 8 9 10 11 12 13 14 15 16 17 18 19 20 21 22 23 24 25 26 27 28 29 30 31 32 33 34 35 36 37 38 39 40 41 42 43 44 45 46 47 48 49 50
000 ASUS41 KGYX 182010 RWRGYX WEATHER ROUNDUP FOR MAINE AND NEW HAMPSHIRE NATIONAL WEATHER SERVICE GRAY ME 300 PM EST THU JAN 18 2018 MEZ002-005-006-010-012-015-018-020-021-024-026-027-029-182100- MAINE CITY SKY/WX TMP DP RH WIND PRES REMARKS PORTLAND FAIR 29 20 69 NW7 29.84F SANFORD FAIR 29 18 63 NW8 29.83F BAR HARBOR FAIR 31 20 63 NW6 29.83F WISCASSET FAIR 31 18 58 VRB5 29.84F ROCKLAND FAIR 30 19 63 VRB6 29.82F FRYEBURG PTSUNNY 30 19 63 N7 29.82F LEWISTONAUBURN FAIR 29 17 61 NW10 29.83F WCI 20 AUGUSTA PTSUNNY 29 15 56 NW8 29.82F WATERVILLE FAIR 28 17 63 N5 29.78S BANGOR FAIR 28 17 63 W6 29.82S GREENVILLE N/A 22 14 71 NW14G22 29.72 WCI 9 MILLINOCKET FAIR 28 17 63 NW10 29.80S WCI 19 HOULTON FAIR 27 16 63 VRB6 29.75S PRESQUE ISLE CLOUDY 25 15 66 W14 29.76R WCI 13 FRENCHVILLE CLOUDY 21 13 71 W12 29.71R WCI 9 CARIBOU CLOUDY 25 14 63 W7 29.74R $$ NHZ002-005-008-009-011-012-014-182100- NEW HAMPSHIRE CITY SKY/WX TMP DP RH WIND PRES REMARKS PORTSMOUTH MOSUNNY 29 17 61 NW10 29.82F WCI 19 ROCHESTER FAIR 29 18 63 N7 29.81F NASHUA FAIR 29 19 66 NW13 29.86F WCI 19 MANCHESTER FAIR 28 16 60 NW14G20 29.84F WCI 17 CONCORD FAIR 28 16 60 NW14 29.85F WCI 17 LACONIA FAIR 31 18 58 W9G17 29.83 PLYMOUTH PTSUNNY 28 16 60 NW10G22 29.85S WCI 18 BERLIN CLOUDY 23 17 78 CALM 29.82S WHITEFIELD CLOUDY 24 17 74 CALM 29.85S JAFFREY FAIR 27 17 66 NW8 29.82S KEENE FLURRIES 30 19 63 N13 29.87S WCI 20 LEBANON PTSUNNY 27 17 66 NW7 29.87F MT WASHINGTON PTSUNNY 25 -15 17 NW40 N/A WCI 6 $$ VTZ005-007-008-182100- VERMONT CITY SKY/WX TMP DP RH WIND PRES REMARKS ST JOHNSBURY N/A 24 18 77 MISG 29.86S MONTPELIER CLOUDY 22 17 81 NW7 29.88F BURLINGTON CLOUDY 24 15 68 S6 29.92S $$ MAZ007-012-024-CTZ003-RIZ002-NYZ038-NYZ072-182100- SOUTHERN NEW ENGLAND AND NY CITY SKY/WX TMP DP RH WIND PRES REMARKS BOSTON FAIR 30 16 56 NW13G22 29.85F WCI 20 WORCESTER FAIR 24 13 62 NW13 29.81S WCI 12 NANTUCKET FAIR 32 24 72 N15 29.82F PROVIDENCE FAIR 33 16 49 N12 29.85F HARTFORD FAIR 28 14 55 N10 29.89F WCI 19 ALBANY PTSUNNY 24 11 57 W15G23 29.97F WCI 11 NEW YORK CITY FAIR 32 12 43 NW15 29.92F $$ ANZ081-ANZ082-ANZ150-NHZ014-MEZ023>029-182100- COASTAL MARINE OBSERVATIONS STATION/POSITION TIME TEMP WIND PRES WAVE AIR SEA DIR/SP/G HT/PER (UTC) (F) (DEG/KT/KT) (MB) (FT/S) MOUNT DESERT ROC 2000 28 320/ 8/ 9 1010.0F MATINICUS ROCK 2000 29 350/ 10/ 12 1009.4F ISLE OF SHOALS 2000 30 330/ 9/ 10 1010.1F JEFFREYS LEDGE 1906 44 N/A 3/10 GEORGES BANK BUO 1850 45 53 1004.5 5/ 9 $$ .............KEY.............. WCI - WIND CHILL TC - TEMPERATURE IN CELSIUS VSB - VISIBILITY IN MILES HX - HEAT INDEX FAIR- INDICATES FEW OR NO CLOUDS BELOW 12,000 FT, WITH NO SIGNIFICANT WEATHER AND/OR OBSTRUCTIONS TO VISIBILITY.

USA.gov is the U.S. government's official web portal to all federal, state and local government web resources and services.